Time,TemperatureF,DewpointF,PressureIn,WindDirection,WindDirectionDegrees,WindSpeedMPH,WindSpeedGustMPH,Humidity,HourlyPrecipIn,Conditions,Clouds,dailyrainin,SoftwareType,DateUTC
2013-02-07 00:01:00,36.0,33.0,-100.00,NW,320,1.0,1.0,88,-99.99,,,-99.99,,2013-02-07 08:01:00,
2013-02-07 00:10:00,35.0,33.0,-100.00,WSW,255,1.0,1.0,92,-99.99,,,-99.99,,2013-02-07 08:10:00,
2013-02-07 01:01:00,35.0,33.0,-100.00,WSW,255,1.0,1.0,92,-99.99,,,-99.99,,2013-02-07 09:01:00,
2013-02-07 02:01:00,35.0,32.0,-100.00,West,270,0.0,2.0,88,-99.99,,,-99.99,,2013-02-07 10:01:00,
2013-02-07 02:10:00,34.0,32.0,-100.00,North,-999,0.0,0.0,92,-99.99,,,-99.99,,2013-02-07 10:10:00,
2013-02-07 02:11:00,35.0,32.0,-100.00,West,270,0.0,2.0,88,-99.99,,,-99.99,,2013-02-07 10:11:00,
2013-02-07 03:01:00,34.0,32.0,-100.00,North,-999,0.0,0.0,92,-99.99,,,-99.99,,2013-02-07 11:01:00,
2013-02-07 04:02:00,34.0,31.0,-100.00,North,360,1.0,2.0,88,-99.99,,,-99.99,,2013-02-07 12:02:00,
2013-02-07 04:11:00,34.0,31.0,-100.00,North,360,1.0,2.0,88,-99.99,,,-99.99,,2013-02-07 12:11:00,
2013-02-07 05:02:00,34.0,32.0,-100.00,North,-999,0.0,0.0,92,-99.99,,,-99.99,,2013-02-07 13:02:00,
2013-02-07 05:10:00,34.0,32.0,-100.00,NNW,335,1.0,3.0,92,-99.99,,,-99.99,,2013-02-07 13:10:00,
2013-02-07 06:01:00,34.0,32.0,-100.00,NNW,335,1.0,3.0,92,-99.99,,,-99.99,,2013-02-07 14:01:00,
2013-02-07 07:01:00,35.0,33.0,-100.00,WNW,290,5.0,7.0,92,-99.99,,,-99.99,,2013-02-07 15:01:00,
2013-02-07 07:10:00,35.0,33.0,-100.00,North,5,2.0,3.0,92,-99.99,,,-99.99,,2013-02-07 15:10:00,
2013-02-07 07:11:00,35.0,33.0,-100.00,WNW,290,5.0,7.0,92,-99.99,,,-99.99,,2013-02-07 15:11:00,
2013-02-07 08:01:00,35.0,33.0,-100.00,North,5,2.0,3.0,92,-99.99,,,-99.99,,2013-02-07 16:01:00,
2013-02-07 09:01:00,36.0,34.0,-100.00,North,360,3.0,7.0,92,-99.99,,,-99.99,,2013-02-07 17:01:00,
2013-02-07 09:11:00,36.0,34.0,-100.00,North,360,3.0,7.0,92,-99.99,,,-99.99,,2013-02-07 17:11:00,
2013-02-07 09:20:00,38.0,34.0,-100.00,NW,315,6.0,8.0,85,-99.99,,,-99.99,,2013-02-07 17:20:00,
2013-02-07 10:01:00,38.0,34.0,-100.00,NW,315,6.0,8.0,85,-99.99,,,-99.99,,2013-02-07 18:01:00,
2013-02-07 10:10:00,43.0,33.0,-100.00,NW,320,3.0,5.0,67,-99.99,,,-99.99,,2013-02-07 18:10:00,
2013-02-07 10:11:00,38.0,34.0,-100.00,NW,315,6.0,8.0,85,-99.99,,,-99.99,,2013-02-07 18:11:00,
2013-02-07 11:01:00,43.0,33.0,-100.00,NW,320,3.0,5.0,67,-99.99,,,-99.99,,2013-02-07 19:01:00,
2013-02-07 12:01:00,47.0,26.0,-100.00,NW,315,5.0,7.0,43,-99.99,,,-99.99,,2013-02-07 20:01:00,
2013-02-07 12:11:00,47.0,26.0,-100.00,NW,315,5.0,7.0,43,-99.99,,,-99.99,,2013-02-07 20:11:00,
2013-02-07 13:01:00,48.0,25.0,-100.00,NNW,345,2.0,6.0,40,-99.99,,,-99.99,,2013-02-07 21:01:00,
2013-02-07 13:10:00,49.0,21.0,-100.00,North,355,5.0,9.0,32,-99.99,,,-99.99,,2013-02-07 21:10:00,
2013-02-07 14:02:00,49.0,21.0,-100.00,North,355,5.0,9.0,32,-99.99,,,-99.99,,2013-02-07 22:02:00,
2013-02-07 15:01:00,50.0,21.0,-100.00,North,355,3.0,12.0,31,-99.99,,,-99.99,,2013-02-07 23:01:00,
2013-02-07 15:10:00,49.0,20.0,-100.00,North,360,3.0,8.0,31,-99.99,,,-99.99,,2013-02-07 23:10:00,
2013-02-07 15:11:00,50.0,21.0,-100.00,North,355,3.0,12.0,31,-99.99,,,-99.99,,2013-02-07 23:11:00,
2013-02-07 16:01:00,49.0,20.0,-100.00,North,360,3.0,8.0,31,-99.99,,,-99.99,,2013-02-08 00:01:00,
2013-02-07 17:01:00,46.0,19.0,-100.00,NNW,335,2.0,5.0,33,-99.99,,,-99.99,,2013-02-08 01:01:00,
2013-02-07 17:11:00,46.0,19.0,-100.00,NNW,335,2.0,5.0,33,-99.99,,,-99.99,,2013-02-08 01:11:00,
2013-02-07 18:01:00,40.0,20.0,-100.00,NW,320,3.0,7.0,44,-99.99,,,-99.99,,2013-02-08 02:01:00,
2013-02-07 18:10:00,38.0,21.0,-100.00,NW,305,2.0,6.0,49,-99.99,,,-99.99,,2013-02-08 02:10:00,
2013-02-07 19:01:00,38.0,21.0,-100.00,NW,305,2.0,6.0,49,-99.99,,,-99.99,,2013-02-08 03:01:00,
2013-02-07 20:01:00,35.0,22.0,-100.00,North,360,3.0,6.0,58,-99.99,,,-99.99,,2013-02-08 04:01:00,
2013-02-07 20:10:00,35.0,23.0,-100.00,North,360,3.0,9.0,61,-99.99,,,-99.99,,2013-02-08 04:10:00,
2013-02-07 20:11:00,35.0,22.0,-100.00,North,360,3.0,6.0,58,-99.99,,,-99.99,,2013-02-08 04:11:00,
2013-02-07 21:02:00,35.0,23.0,-100.00,North,360,3.0,9.0,61,-99.99,,,-99.99,,2013-02-08 05:02:00,
2013-02-07 22:01:00,33.0,23.0,-100.00,North,350,6.0,9.0,66,-99.99,,,-99.99,,2013-02-08 06:01:00,
2013-02-07 22:11:00,33.0,23.0,-100.00,North,350,6.0,9.0,66,-99.99,,,-99.99,,2013-02-08 06:11:00,
2013-02-07 22:20:00,32.0,23.0,-100.00,North,360,3.0,9.0,69,-99.99,,,-99.99,,2013-02-08 06:20:00,
2013-02-07 23:01:00,32.0,23.0,-100.00,North,360,3.0,9.0,69,-99.99,,,-99.99,,2013-02-08 07:01:00,
2013-02-07 23:10:00,32.0,23.0,-100.00,NNW,345,5.0,10.0,69,-99.99,,,-99.99,,2013-02-08 07:10:00,
2013-02-07 23:11:00,32.0,23.0,-100.00,North,360,3.0,9.0,69,-99.99,,,-99.99,,2013-02-08 07:11:00,